This demonstration page uses our WeatherBlox Daily Observations layout. Learn more.

40.92945, -100.16068

Hourly Observations for August 5, 2018

Temp ( °F °C ) Dew Point ( °F °C ) Humidity (%) Winds ( mph kmh ) Pressure ( in mb ) Visibility ( mi km ) Precip ( " mm )
12:15 am 00:15 Partly Cloudy 77 25.2 71 21.8 82 82 ESE 6 9 29.8 1009 10 16.0934 0 0
12:35 am 00:35 Partly Cloudy 77 24.9 71 21.8 83 83 SSE 15 24 29.8 1009 10 16.0934 0 0
12:55 am 00:55 Clear 77 25 71 21.6 81 81 S 14 22 29.77 1008 10 16.0934 0 0
1:15 am 01:15 Clear 77 24.8 70 21.3 81 81 S 7 11 29.8 1009 10 16.0934 0 0
1:35 am 01:35 Clear 77 24.8 70 21.1 80 80 WNW 5 7 29.8 1009 10 16.0934 0 0
1:55 am 01:55 Clear 75 23.9 71 21.5 86 86 Calm 29.8 1009 10 16.0934 0 0
2:15 am 02:15 Clear 76 24.4 70 21 81 81 S 5 7 29.8 1009 10 16.0934 0 0
2:35 am 02:35 Clear 76 24.2 70 21 82 82 WNW 7 11 29.83 1010 10 16.0934 0 0
2:55 am 02:55 Clear 76 24.5 69 20.8 80 80 N 3 6 29.83 1010 10 16.0934 0 0
3:15 am 03:15 Clear 75 23.9 70 21 84 84 ESE 3 6 29.8 1009 10 16.0934 0 0
3:35 am 03:35 Clear 74 23.5 70 21 86 86 Calm 29.8 1009 10 16.0934 0 0
3:55 am 03:55 Clear 74 23.5 69 20.8 85 85 E 3 6 29.83 1010 10 16.0934 0 0
4:15 am 04:15 Clear 74 23.3 69 20.6 85 85 Calm 29.83 1010 10 16.0934 0 0
4:35 am 04:35 Clear 73 22.8 69 20.5 87 87 NNE 7 11 29.83 1010 10 16.0934 0 0
4:55 am 04:55 Clear 72 22 69 20.6 92 92 E 6 9 29.83 1010 7 11.26538 0 0
5:15 am 05:15 Clear 72 22.2 69 20.6 91 91 ESE 6 9 29.83 1010 10 16.0934 0 0
5:35 am 05:35 Clear 73 22.8 69 20.4 86 86 ESE 6 9 29.8 1009 10 16.0934 0 0
5:55 am 05:55 Clear 73 22.8 68 20 84 84 ESE 6 9 29.8 1009 10 16.0934 0 0
6:15 am 06:15 Clear 73 22.7 67 19.7 83 83 E 5 7 29.8 1009 10 16.0934 0 0
6:35 am 06:35 Clear with Nearby Thunderstorms 72 22.4 67 19.6 84 84 ESE 7 11 29.83 1010 10 16.0934 0 0
6:55 am 06:55 Sunny 72 22.4 67 19.3 83 83 ESE 7 11 29.83 1010 10 16.0934 0 0
7:15 am 07:15 Sunny 72 22.4 67 19.2 82 82 ESE 8 13 29.83 1010 10 16.0934 0 0
7:35 am 07:35 Sunny 72 22.1 66 19 83 83 SE 8 13 29.83 1010 10 16.0934 0 0
7:55 am 07:55 Sunny 72 22 66 19 83 83 SE 9 15 29.83 1010 10 16.0934 0 0
8:15 am 08:15 Sunny 71 21.8 66 19 84 84 ESE 8 13 29.83 1010 10 16.0934 0 0
8:35 am 08:35 Sunny 72 22 66 18.8 82 82 SE 3 6 29.85 1011 10 16.0934 0 0
8:55 am 08:55 Sunny 72 22 66 18.7 82 82 Calm 29.85 1011 10 16.0934 0 0
9:15 am 09:15 Sunny 72 22 66 18.9 83 83 SSE 6 9 29.85 1011 10 16.0934 0 0
9:35 am 09:35 Sunny 73 22.5 66 19 81 81 Calm 29.88 1012 10 16.0934 0 0
9:55 am 09:55 Sunny 73 22.6 67 19.5 83 83 NE 3 6 29.88 1012 10 16.0934 0 0
10:15 am 10:15 Sunny 73 22.5 67 19.4 83 83 ENE 5 7 29.88 1012 10 16.0934 0 0
10:35 am 10:35 Sunny 73 22.5 67 19.2 82 82 E 10 17 29.85 1011 10 16.0934 0 0
10:55 am 10:55 Sunny with Light Rain 73 22.8 66 19.1 80 80 E 10 17 29.83 1010 10 16.0934 0 0
11:15 am 11:15 Partly Cloudy 74 23.1 66 19 78 78 E 8 13 29.83 1010 10 16.0934 0 0
11:35 am 11:35 Partly Cloudy 74 23.6 66 19.1 76 76 E 6 9 29.83 1010 10 16.0934 0 0
11:55 am 11:55 Partly Cloudy 76 24.3 66 18.8 71 71 SE 7 11 29.83 1010 10 16.0934 0 0
12:15 pm 12:15 Sunny 76 24.5 65 18.6 70 70 SE 9 15 29.83 1010 10 16.0934 0 0
12:35 pm 12:35 Sunny 77 25.1 66 18.9 69 69 SSE 8 13 29.83 1010 10 16.0934 0 0
12:55 pm 12:55 Mostly Cloudy 75 24 67 19.4 76 76 SSE 9 15 29.85 1011 10 16.0934 0 0
1:15 pm 13:15 Mostly Cloudy with Thunderstorms 74 23.5 67 19.4 78 78 Calm 29.85 1011 10 16.0934 0 0
1:35 pm 13:35 Cloudy with Thunderstorms 74 23.6 67 19.4 77 77 WSW 7 11 29.88 1012 10 16.0934 0 0
1:55 pm 13:55 Cloudy 74 23.5 69 20.4 83 83 SSW 6 9 29.88 1012 7 11.26538 0 0
2:15 pm 14:15 Mostly Cloudy with Light Thunderstorms 74 23.2 69 20.5 85 85 W 3 6 29.94 1014 10 16.0934 0 0
2:35 pm 14:35 Mostly Cloudy 74 23.5 70 20.9 85 85 NNE 8 13 29.85 1011 10 16.0934 0.01 0.254
2:55 pm 14:55 Partly Cloudy 74 23.5 70 21 86 86 NE 8 13 29.83 1010 10 16.0934 0.01 0.254
3:15 pm 15:15 Partly Cloudy 74 23.5 70 21 86 86 ESE 3 6 29.85 1011 10 16.0934 0 0
3:35 pm 15:35 Sunny 75 23.7 70 21 85 85 ESE 8 13 29.85 1011 10 16.0934 0 0
3:55 pm 15:55 Sunny 76 24.6 70 21.1 81 81 ENE 12 19 29.83 1010 10 16.0934 0 0
4:15 pm 16:15 Sunny 79 26.1 70 21.3 75 75 ESE 9 15 29.83 1010 10 16.0934 0 0
4:35 pm 16:35 Sunny 80 26.6 70 20.9 71 71 E 7 11 29.8 1009 10 16.0934 0 0
4:55 pm 16:55 Sunny 80 26.5 69 20.7 71 71 E 8 13 29.8 1009 10 16.0934 0 0
5:15 pm 17:15 Sunny 80 26.8 69 20.6 69 69 ESE 8 13 29.8 1009 10 16.0934 0 0
5:35 pm 17:35 Sunny 81 27 69 20.8 69 69 E 6 9 29.83 1010 10 16.0934 0 0
5:55 pm 17:55 Sunny 80 26.5 70 21 72 72 E 6 9 29.85 1011 10 16.0934 0 0
6:15 pm 18:15 Sunny 79 26.2 71 21.4 75 75 NNE 8 13 29.85 1011 10 16.0934 0 0
6:35 pm 18:35 Sunny 78 25.8 70 21.3 76 76 NNE 5 7 29.85 1011 10 16.0934 0 0
6:55 pm 18:55 Sunny 78 25.5 71 21.5 79 79 NE 5 7 29.85 1011 10 16.0934 0 0
7:15 pm 19:15 Sunny 77 25.1 71 21.4 80 80 NNE 6 9 29.85 1011 10 16.0934 0 0
7:35 pm 19:35 Sunny 77 24.8 70 21.3 81 81 NNE 6 9 29.85 1011 10 16.0934 0 0
7:55 pm 19:55 Sunny 76 24.3 70 21 82 82 ENE 6 9 29.88 1012 10 16.0934 0 0
8:15 pm 20:15 Sunny 76 24.3 69 20.6 80 80 NE 7 11 29.88 1012 10 16.0934 0 0
8:35 pm 20:35 Sunny 74 23.5 69 20.3 82 82 NNE 7 11 29.85 1011 10 16.0934 0 0
8:55 pm 20:55 Clear 73 22.8 68 20 84 84 E 7 11 29.88 1012 10 16.0934 0 0
9:15 pm 21:15 Clear 74 23.1 68 19.9 82 82 ESE 10 17 29.85 1011 10 16.0934 0 0
9:35 pm 21:35 Clear 73 23 68 20 83 83 ESE 8 13 29.88 1012 10 16.0934 0 0
9:55 pm 21:55 Clear 73 22.7 68 20.1 85 85 ESE 8 13 29.91 1013 10 16.0934 0 0
10:15 pm 22:15 Clear 73 22.7 68 20.1 85 85 ESE 8 13 29.91 1013 10 16.0934 0 0
10:35 pm 22:35 Partly Cloudy 73 22.5 68 20.2 87 87 E 3 6 29.94 1014 10 16.0934 0 0
10:55 pm 22:55 Mostly Cloudy 72 22 69 20.3 90 90 ENE 3 6 29.94 1014 7 11.26538 0 0
11:15 pm 23:15 Mostly Cloudy 71 21.6 68 20.2 92 92 Calm 29.94 1014 7 11.26538 0 0
11:35 pm 23:35 Mostly Cloudy 71 21.5 68 20.1 92 92 NNE 5 7 29.94 1014 7 11.26538 0 0
11:55 pm 23:55 Partly Cloudy 71 21.5 68 20 91 91 Calm 29.94 1014 7 11.26538 0 0

Powered by AerisWeather